Weather in Karabulak

Russia / Republic of Ingushetia     43°18′20″N   44°54′33″E
temp.,
°C
wind,
m/s
gust,
m/s
humid.,
%
clouds,
%
prec.,
mm/h
press.,
hPa
HPBL,
m
25 february, thu
thu2500:00−16ese129787 0.0 104021
03:00−16e119350 0.0 103820
06:00−15e118979 0.0 103848
09:00−11e227989 0.0 1037132
12:00−6ene217667 0.0 1035208
15:00−4ene118139 0.0 1032183
18:00−6wsw128650 0.0 103321
21:00−2sw456556 0.0 1033100
26 february, fri
fri2600:000sw3378100 0.0 103149
03:00−1ssw1181100 0.0 103021
06:00−1s1184100 0.0 102921
09:00+1sw2284100 0.0 102874
12:00+4w3685100 0.0 1026416
15:00+4w357985 0.0 1025375
18:00+1sw3376100 0.0 102640
21:00+1sw3376100 0.0 102635
27 february, sat
sat2700:00+1sw237144 0.0 102425
03:00+1ssw227122 0.0 102326
06:00+1ssw22690 0.0 102223
09:00+5ssw117419 0.0 102147
12:00+7ene226541 0.0 1018284
15:00+7e237220 0.0 1016289
18:00+2sse12820 0.0 101622
21:00+2ssw118337 0.0 101622
28 february, sun
sun2800:00+2s227849 0.0 101422
03:00+1w117425 0.0 101422
06:000sw129261 0.0 101554
09:00+2sw018065 0.1 1014106
12:00+1nw1298100 0.6 1014146
15:00+2nnw0197100 0.9 1014102
18:000wnw2598100 1.8 1017269
21:00+1sw4695100 2.7 1020277
1 march, mon
mon100:00−1sw238789 0.0 102143
03:00−1nnw118689 0.0 102221
06:00−1w139877 0.5 1024201
09:000nw248588 1.0 1024518
12:00+2nnw237598 0.1 1024723
15:00+1nnw227699 0.1 1025657
18:00−1wnw0186100 0.1 102623
21:00−1sw1185100 0.1 102921